sat.trackr.live / text

‹ back to catalog

STARLINK-33945

NORAD 64154 · 2025-112J

PAYLOAD ACTIVE UNKNOWN

§ Identity

Operator
Country
US
Launch date
2025-05-27
Launch site
AFWTR
Launch vehicle
Mass (kg)
RCS (m²)

Purposes: comms

External: N2YO · Heavens-Above · Gunter

§ Orbital elements

Epoch: 2026-05-25T03:18:53.334720Z

Period
95.64 min
Inclination
97.4485°
Eccentricity
0.0002142
Mean motion
15.05653833 rev/d
Perigee alt
548.0 km
Apogee alt
551.0 km
Semi-major
6,927.6 km
B*
1.4125e-4
RAAN
205.0191°
Arg perigee
154.1183°
Mean anomaly
206.0151°
Rev number
5,536

§ Raw data

STARLINK-339451 64154U 25112J   26145.13811730  .00001980  00000+0  14125-3 0  99962 64154  97.4485 205.0191 0002142 154.1183 206.0151 15.05653833 55362

JSON: /api/v1/satellites/64154 · /tle

For live sub-satellite position, see the globe view (requires WebGL).

§ Visibility from observer

Set your observer location to see the next 7 days of passes ≥ 10°. The values pass through the URL so the page stays shareable.

No JS? Fill the form by hand. The geolocation button needs JavaScript.